TimeCET,TemperatureF,Dew PointF,Humidity,Sea Level PressureIn,VisibilityMPH,Wind Direction,Wind SpeedMPH,Gust SpeedMPH,PrecipitationIn,Events,Conditions,WindDirDegrees,DateUTC
12:00 AM,43,39,81,29.99,25,SSW,17.9,,,Rain,Rain,200,2013-12-21 23:00:00
12:25 AM,42.8,39.2,87,29.98,6.2,SSW,19.6,-,N/A,,Overcast,200,2013-12-21 23:25:00
12:42 AM,42.8,39.2,87,29.98,6.2,South,17.3,-,N/A,,Mostly Cloudy,190,2013-12-21 23:42:00
12:55 AM,42.8,39.2,87,29.98,6.2,SSW,18.4,-,N/A,,Overcast,200,2013-12-21 23:55:00
1:00 AM,44,39,78,29.98,28,SSW,17.9,,,,Partly Cloudy,200,2013-12-22 00:00:00
1:11 AM,42.8,39.2,87,29.95,6.2,SSW,18.4,-,N/A,,Overcast,200,2013-12-22 00:11:00
1:15 AM,44.6,39.2,81,29.95,6.2,SSW,18.4,-,N/A,,Overcast,200,2013-12-22 00:15:00
1:20 AM,44.6,39.2,81,29.95,6.2,SSW,18.4,-,N/A,,Overcast,200,2013-12-22 00:20:00
1:25 AM,44.6,39.2,81,29.98,6.2,SSW,18.4,-,N/A,,Overcast,200,2013-12-22 00:25:00
1:29 AM,42.8,39.2,87,29.95,6.2,SSW,18.4,-,N/A,,Overcast,200,2013-12-22 00:29:00
1:40 AM,42.8,39.2,87,29.95,6.2,SSW,17.3,-,N/A,,Overcast,200,2013-12-22 00:40:00
1:55 AM,44.6,39.2,81,29.95,6.2,SSW,18.4,-,N/A,,Overcast,200,2013-12-22 00:55:00
2:00 AM,44,39,76,29.98,28,SSW,20.1,,,,Overcast,200,2013-12-22 01:00:00
2:25 AM,44.6,39.2,81,29.98,6.2,SSW,20.7,-,N/A,,Overcast,200,2013-12-22 01:25:00
2:34 AM,44.6,39.2,81,29.98,6.2,SSW,19.6,-,N/A,,Overcast,200,2013-12-22 01:34:00
2:35 AM,44.6,39.2,81,29.98,6.2,SSW,18.4,-,N/A,,Overcast,200,2013-12-22 01:35:00
2:43 AM,44.6,39.2,81,29.98,6.2,SSW,19.6,-,N/A,,Overcast,200,2013-12-22 01:43:00
2:50 AM,44.6,39.2,81,29.98,6.2,SSW,20.7,-,N/A,,Overcast,200,2013-12-22 01:50:00
2:55 AM,44.6,39.2,81,29.98,6.2,SSW,19.6,-,N/A,,Overcast,200,2013-12-22 01:55:00
3:00 AM,44,39,77,29.99,28,SSW,17.9,,,,Overcast,200,2013-12-22 02:00:00
3:25 AM,44.6,39.2,81,29.98,6.2,SSW,15.0,-,N/A,,Overcast,200,2013-12-22 02:25:00
3:55 AM,44.6,39.2,81,29.98,6.2,SSW,16.1,-,N/A,Rain,Light Rain,200,2013-12-22 02:55:00
4:00 AM,44,40,82,30.00,10,SSW,15.7,,,Rain,Light Rain Showers,200,2013-12-22 03:00:00
4:25 AM,42.8,41.0,93,29.98,6.2,SSW,16.1,-,N/A,,Overcast,200,2013-12-22 03:25:00
4:55 AM,44.6,41.0,87,29.98,6.2,SSW,15.0,-,N/A,,Overcast,210,2013-12-22 03:55:00
5:00 AM,44,41,86,30.00,3,SSW,15.7,,,Rain,Light Rain Showers,200,2013-12-22 04:00:00
5:00 AM,44.6,41.0,87,29.98,4.3,SSW,16.1,-,N/A,Rain,Light Rain,210,2013-12-22 04:00:00
5:10 AM,44.6,41.0,87,29.98,6.2,SSW,12.7,-,N/A,,Light Drizzle,200,2013-12-22 04:10:00
5:17 AM,44.6,41.0,87,29.98,4.3,SSW,12.7,-,N/A,Rain,Light Rain,200,2013-12-22 04:17:00
5:25 AM,42.8,41.0,93,29.98,4.3,SSW,12.7,-,N/A,Rain,Light Rain,200,2013-12-22 04:25:00
5:55 AM,44.6,41.0,87,29.98,6.2,South,12.7,-,N/A,Rain,Light Rain,190,2013-12-22 04:55:00
6:00 AM,44,42,89,29.99,11,South,11.2,,,Rain,Light Rain,190,2013-12-22 05:00:00
6:25 AM,44.6,41.0,87,29.98,6.2,South,10.4,-,N/A,,Overcast,190,2013-12-22 05:25:00
6:55 AM,44.6,41.0,87,29.98,6.2,SSW,12.7,-,N/A,,Overcast,200,2013-12-22 05:55:00
7:00 AM,45,42,85,29.98,25,SSW,13.4,,,Rain,Rain,200,2013-12-22 06:00:00
7:24 AM,44.6,42.8,93,29.95,6.2,SSW,12.7,-,N/A,,Overcast,200,2013-12-22 06:24:00
7:25 AM,44.6,42.8,93,29.95,6.2,SSW,12.7,-,N/A,,Overcast,200,2013-12-22 06:25:00
7:55 AM,46.4,42.8,87,29.95,6.2,SSW,13.8,-,N/A,,Overcast,200,2013-12-22 06:55:00
8:00 AM,46,42,81,29.97,22,South,13.4,,,,Overcast,190,2013-12-22 07:00:00
8:25 AM,46.4,42.8,87,29.95,6.2,South,15.0,-,N/A,,Overcast,190,2013-12-22 07:25:00
8:55 AM,46.4,42.8,87,29.95,6.2,SSW,15.0,-,N/A,,Overcast,200,2013-12-22 07:55:00
9:00 AM,46,42,81,29.96,28,SSW,15.7,,,,Overcast,200,2013-12-22 08:00:00
9:25 AM,46.4,42.8,87,29.95,6.2,SSW,15.0,-,N/A,,Overcast,200,2013-12-22 08:25:00
9:55 AM,46.4,42.8,87,29.95,6.2,SSW,16.1,-,N/A,Rain,Light Rain,200,2013-12-22 08:55:00
9:57 AM,46.4,44.6,93,29.95,3.7,SSW,15.0,-,N/A,Rain,Light Rain,200,2013-12-22 08:57:00
9:59 AM,46.4,44.6,93,29.95,3.7,SSW,15.0,-,N/A,Rain,Light Rain,200,2013-12-22 08:59:00
10:00 AM,46,44,89,29.96,4,SSW,13.4,,,Rain,Light Rain,200,2013-12-22 09:00:00
10:21 AM,46.4,44.6,93,29.95,-9999.0,SSW,13.8,-,N/A,Rain,Light Rain,200,2013-12-22 09:21:00
10:25 AM,46.4,44.6,93,29.95,3.1,SSW,12.7,-,N/A,Rain,Light Rain,200,2013-12-22 09:25:00
10:35 AM,46.4,44.6,93,29.95,4.3,SSW,11.5,-,N/A,,Drizzle,200,2013-12-22 09:35:00
10:40 AM,46.4,44.6,93,29.95,4.3,SSW,12.7,-,N/A,,Drizzle,200,2013-12-22 09:40:00
10:43 AM,46.4,44.6,93,29.92,6.2,South,12.7,-,N/A,,Mostly Cloudy,190,2013-12-22 09:43:00
10:55 AM,46.4,44.6,93,29.92,6.2,South,12.7,-,N/A,,Mostly Cloudy,190,2013-12-22 09:55:00
11:00 AM,47,44,87,29.94,14,South,13.4,,,Rain,Rain,190,2013-12-22 10:00:00
11:02 AM,46.4,44.6,93,29.92,6.2,South,13.8,-,N/A,,Mostly Cloudy,190,2013-12-22 10:02:00
11:18 AM,48.2,44.6,87,29.92,6.2,SSW,15.0,-,N/A,,Mostly Cloudy,200,2013-12-22 10:18:00
11:25 AM,48.2,44.6,87,29.92,6.2,SSW,16.1,-,N/A,,Overcast,200,2013-12-22 10:25:00
11:55 AM,48.2,44.6,87,29.92,6.2,SSW,18.4,-,N/A,,Scattered Clouds,200,2013-12-22 10:55:00
11:56 AM,48.2,44.6,87,29.92,6.2,SSW,17.3,-,N/A,,Scattered Clouds,200,2013-12-22 10:56:00
12:00 PM,49,44,79,29.93,22,SSW,17.9,,,,Partly Cloudy,200,2013-12-22 11:00:00
12:04 PM,48.2,44.6,87,29.92,6.2,SSW,17.3,-,N/A,,Mostly Cloudy,200,2013-12-22 11:04:00
12:06 PM,48.2,44.6,87,29.92,6.2,SSW,18.4,-,N/A,,Mostly Cloudy,210,2013-12-22 11:06:00
12:25 PM,50.0,44.6,82,29.89,6.2,SSW,17.3,-,N/A,,Mostly Cloudy,210,2013-12-22 11:25:00
12:27 PM,50.0,44.6,82,29.89,6.2,SSW,18.4,-,N/A,,Mostly Cloudy,210,2013-12-22 11:27:00
12:30 PM,50.0,44.6,82,29.89,6.2,SSW,18.4,-,N/A,,Mostly Cloudy,200,2013-12-22 11:30:00
12:55 PM,50.0,44.6,82,29.89,6.2,SSW,17.3,-,N/A,,Mostly Cloudy,200,2013-12-22 11:55:00
1:00 PM,50,45,75,29.89,25,SSW,17.9,,,,Partly Cloudy,200,2013-12-22 12:00:00
1:25 PM,50.0,44.6,82,29.86,6.2,SSW,19.6,-,N/A,,Mostly Cloudy,200,2013-12-22 12:25:00
1:26 PM,50.0,44.6,82,29.86,6.2,SSW,19.6,-,N/A,,Mostly Cloudy,200,2013-12-22 12:26:00
1:30 PM,50.0,44.6,82,29.86,6.2,SSW,18.4,-,N/A,,Mostly Cloudy,200,2013-12-22 12:30:00
1:41 PM,50.0,44.6,82,29.86,6.2,SSW,18.4,-,N/A,,Mostly Cloudy,200,2013-12-22 12:41:00
1:50 PM,50.0,44.6,82,29.86,6.2,SSW,18.4,31.1,N/A,,Mostly Cloudy,200,2013-12-22 12:50:00
1:55 PM,50.0,44.6,82,29.86,6.2,SSW,19.6,32.2,N/A,,Overcast,200,2013-12-22 12:55:00
1:59 PM,50.0,44.6,82,29.86,6.2,SSW,18.4,32.2,N/A,,Mostly Cloudy,200,2013-12-22 12:59:00
2:00 PM,51,44,70,29.87,22,SSW,17.9,,,,Scattered Clouds,210,2013-12-22 13:00:00
2:00 PM,50.0,44.6,82,29.86,6.2,SSW,17.3,29.9,N/A,,Mostly Cloudy,210,2013-12-22 13:00:00
2:14 PM,50.0,44.6,82,29.86,6.2,SSW,18.4,32.2,N/A,,Mostly Cloudy,200,2013-12-22 13:14:00
2:19 PM,50.0,44.6,82,29.86,6.2,SSW,18.4,-,N/A,,Mostly Cloudy,200,2013-12-22 13:19:00
2:25 PM,50.0,44.6,82,29.86,6.2,SSW,18.4,-,N/A,,Mostly Cloudy,200,2013-12-22 13:25:00
2:55 PM,50.0,44.6,82,29.86,6.2,SSW,19.6,-,N/A,,Mostly Cloudy,210,2013-12-22 13:55:00
3:00 PM,50,44,75,29.86,22,SSW,17.9,,,Rain,Light Rain Showers,210,2013-12-22 14:00:00
3:03 PM,50.0,44.6,82,29.83,6.2,SSW,17.3,-,N/A,,Drizzle,210,2013-12-22 14:03:00
3:25 PM,50.0,44.6,82,29.83,6.2,SSW,13.8,-,N/A,,Overcast,200,2013-12-22 14:25:00
3:32 PM,50.0,44.6,82,29.83,6.2,SSW,16.1,-,N/A,,Mostly Cloudy,200,2013-12-22 14:32:00
3:36 PM,50.0,44.6,82,29.83,6.2,SSW,17.3,-,N/A,Rain,Light Rain,200,2013-12-22 14:36:00
3:40 PM,50.0,44.6,82,29.83,6.2,SSW,18.4,-,N/A,Rain,Light Rain,210,2013-12-22 14:40:00
3:43 PM,50.0,46.4,87,29.83,2.2,SW,18.4,-,N/A,Rain,Heavy Drizzle,220,2013-12-22 14:43:00
3:48 PM,50.0,44.6,82,29.86,3.7,SW,18.4,-,N/A,Rain,Heavy Rain Showers,230,2013-12-22 14:48:00
3:55 PM,48.2,44.6,87,29.86,6.2,WSW,18.4,-,N/A,Rain,Light Rain Showers,240,2013-12-22 14:55:00
3:59 PM,48.2,44.6,87,29.86,6.2,WSW,15.0,27.6,N/A,Rain,Light Rain,240,2013-12-22 14:59:00
4:00 PM,48,45,84,29.87,13,WSW,13.4,,,Rain,Light Rain Showers,250,2013-12-22 15:00:00
4:12 PM,48.2,44.6,87,29.86,6.2,WSW,12.7,-,N/A,,Mostly Cloudy,240,2013-12-22 15:12:00
4:25 PM,48.2,44.6,87,29.86,6.2,SW,9.2,-,N/A,,Overcast,230,2013-12-22 15:25:00
4:55 PM,48.2,44.6,87,29.86,6.2,SW,11.5,-,N/A,,Overcast,220,2013-12-22 15:55:00
5:00 PM,47,44,87,29.88,25,SW,11.2,,,Rain,Rain,220,2013-12-22 16:00:00
5:25 PM,48.2,44.6,87,29.86,6.2,SW,15.0,-,N/A,,Mostly Cloudy,220,2013-12-22 16:25:00
5:55 PM,46.4,41.0,81,29.89,3.7,West,23.0,36.8,N/A,Rain,Light Rain,260,2013-12-22 16:55:00
5:57 PM,46.4,42.8,87,29.89,5.6,West,18.4,-,N/A,Rain,Light Rain,260,2013-12-22 16:57:00
6:00 PM,46,42,81,29.90,5,West,15.7,,,Rain,Light Rain Showers,260,2013-12-22 17:00:00
6:13 PM,46.4,42.8,87,29.89,6.2,West,17.3,-,N/A,Rain,Light Rain,260,2013-12-22 17:13:00
6:25 PM,46.4,42.8,87,29.89,6.2,WSW,13.8,-,N/A,Rain,Light Rain Showers,250,2013-12-22 17:25:00
6:55 PM,46.4,42.8,87,29.89,6.2,SW,12.7,-,N/A,,Mostly Cloudy,230,2013-12-22 17:55:00
7:00 PM,46,43,84,29.90,8,SW,13.4,,,Rain,Light Rain,230,2013-12-22 18:00:00
7:25 PM,44.6,42.8,93,29.89,6.2,SW,10.4,-,N/A,,Overcast,220,2013-12-22 18:25:00
7:55 PM,44.6,42.8,93,29.89,6.2,SSW,12.7,-,N/A,,Partly Cloudy,210,2013-12-22 18:55:00
8:00 PM,44,42,89,29.90,22,SSW,11.2,,,Rain,Rain,210,2013-12-22 19:00:00
8:25 PM,44.6,42.8,93,29.89,6.2,SSW,12.7,-,N/A,,Mostly Cloudy,210,2013-12-22 19:25:00
8:55 PM,44.6,42.8,93,29.89,6.2,SW,12.7,-,N/A,,Mostly Cloudy,220,2013-12-22 19:55:00
9:00 PM,46,42,81,29.91,25,SW,13.4,,,,Partly Cloudy,230,2013-12-22 20:00:00
9:25 PM,44.6,41.0,87,29.89,6.2,WSW,15.0,-,N/A,,Overcast,240,2013-12-22 20:25:00
9:55 PM,44.6,41.0,87,29.89,6.2,SW,15.0,-,N/A,,Mostly Cloudy,220,2013-12-22 20:55:00
10:00 PM,45,41,81,29.92,22,SW,15.7,,,,Partly Cloudy,230,2013-12-22 21:00:00
10:25 PM,44.6,41.0,87,29.92,6.2,SW,13.8,-,N/A,,Partly Cloudy,220,2013-12-22 21:25:00
10:55 PM,44.6,41.0,87,29.92,6.2,SW,13.8,-,N/A,,Scattered Clouds,220,2013-12-22 21:55:00
11:00 PM,44,41,83,29.94,19,SW,13.4,,,,Scattered Clouds,220,2013-12-22 22:00:00
11:03 PM,44.6,41.0,87,29.92,6.2,SW,15.0,-,N/A,Rain,Light Rain,220,2013-12-22 22:03:00
11:25 PM,44.6,41.0,87,29.92,6.2,SW,15.0,-,N/A,,Overcast,220,2013-12-22 22:25:00
11:55 PM,42.8,39.2,87,29.95,6.2,SW,11.5,-,N/A,,Mostly Cloudy,220,2013-12-22 22:55:00